Flag for West Bank Weather past 2 weeks in Hebron, West Bank

Now
75 °F

Passing clouds.


Feels Like: 76 °F
Forecast: 64 / 84 °F
Wind: 6 mph from South

Location: Ben Gurion International Airport

Current Time: Sep 16, 2014 at 8:03:01 AM

Latest Report: Sep 16, 2014 at 7:20 AM


Visibility: N/A

Pressure: 29.86 "Hg

Humidity: 78%

Dew point: 68 °F

Location of HebronLocation

Historic Weather in Hebron — Graph

°F

Hebron temperature yesterday

Maximum temperature yesterday: 88 °F (at 1:20 PM)
Minimum temperature yesterday: 73 °F (at 6:20 AM)
Average temperature yesterday: 80 °F

Past Weeks' High & Low Weather Summary

 TemperatureHumidityPressure
High90 °F (Sep 4, 11:50 AM)83% (Sep 1, 6:20 AM)29.95 "Hg (Sep 1, 6:20 AM)
Low72 °F (Sep 14, 5:20 AM)46% (Sep 2, 12:20 PM)29.71 "Hg (Sep 5, 3:20 PM)
Average81 °F64%29.85 "Hg
* Reported Sep 1 6:20 AM — Sep 16 6:50 AM, Hebron, Weather by CustomWeather, © 2014

Note: Actual official high and low records may vary slightly from our data, if they occured in-between our weather recording intervals... More about our weather records

Advertising

Hebron weather history for previous 24 hours

 ConditionsComfort  
Time TempWeatherWind HumidityBarometerVisibility
6:50 AM
Sep 16
75 °FPassing clouds.5 mph78%29.86 "HgN/A
6:20 AM75 °FPassing clouds.5 mph78%29.86 "HgN/A
5:50 AM75 °FPassing clouds.5 mph78%29.86 "HgN/A
5:20 AM75 °FPassing clouds.6 mph78%29.86 "HgN/A
4:50 AM75 °FPassing clouds.5 mph78%29.86 "HgN/A
4:20 AM73 °FPassing clouds.5 mph83%29.86 "HgN/A
3:50 AM75 °FPassing clouds.5 mph78%29.86 "HgN/A
3:20 AM75 °FPassing clouds.5 mph78%29.86 "HgN/A
2:50 AM75 °FPassing clouds.5 mph78%29.86 "HgN/A
2:20 AM75 °FPassing clouds.6 mph78%29.86 "HgN/A
1:50 AM77 °FPassing clouds.5 mph74%29.86 "HgN/A
1:20 AM77 °FPassing clouds.5 mph74%29.86 "HgN/A
12:50 AM77 °FPassing clouds.5 mph79%29.86 "HgN/A
12:20 AM77 °FPassing clouds.5 mph74%29.86 "HgN/A
11:50 PM
Sep 15
79 °FPassing clouds.3 mph70%29.86 "HgN/A
11:20 PM79 °FPassing clouds.3 mph74%29.89 "HgN/A
10:50 PM79 °FPassing clouds.3 mph74%29.89 "HgN/A
10:20 PM79 °FPassing clouds.3 mph74%29.89 "HgN/A
9:50 PM81 °FPassing clouds.5 mph70%29.89 "HgN/A
9:20 PM81 °FPassing clouds.5 mph70%29.89 "HgN/A
8:50 PM81 °FPassing clouds.5 mph70%29.86 "HgN/A
8:20 PM81 °FPassing clouds.7 mph70%29.86 "HgN/A
7:50 PM81 °FPassing clouds.8 mph70%29.86 "HgN/A
7:20 PM81 °FScattered clouds.10 mph70%29.86 "HgN/A
6:50 PM82 °FScattered clouds.10 mph66%29.86 "HgN/A
6:20 PM82 °FScattered clouds.10 mph66%29.86 "HgN/A
5:50 PM82 °FPartly sunny.13 mph62%29.86 "HgN/A
5:20 PM84 °FScattered clouds.13 mph62%29.86 "HgN/A
4:50 PM86 °FScattered clouds.13 mph59%29.86 "HgN/A
4:20 PM84 °FScattered clouds.12 mph74%29.86 "HgN/A
3:50 PM84 °FScattered clouds.14 mph79%29.83 "HgN/A
3:20 PM86 °FPassing clouds.14 mph59%29.83 "HgN/A
2:50 PM86 °FPassing clouds.14 mph52%29.86 "HgN/A
2:20 PM88 °FPassing clouds.14 mph52%29.86 "HgN/A
1:50 PM86 °FScattered clouds.15 mph55%29.86 "HgN/A
1:20 PM88 °FScattered clouds.10 mph49%29.86 "HgN/A
12:50 PM86 °FScattered clouds.13 mph49%29.86 "HgN/A
12:20 PM84 °FScattered clouds.12 mph55%29.86 "HgN/A
11:20 AM84 °FScattered clouds.9 mph55%29.86 "HgN/A
10:50 AM84 °FScattered clouds.8 mph58%29.86 "HgN/A
10:20 AM84 °FScattered clouds.8 mph58%29.86 "HgN/A
9:50 AM82 °FScattered clouds.6 mph62%29.86 "HgN/A
9:20 AM81 °FPassing clouds.6 mph70%29.86 "HgN/A
8:50 AM79 °FScattered clouds.7 mph70%29.86 "HgN/A
8:20 AM77 °FScattered clouds.9 mph74%29.86 "HgN/A
Weather by CustomWeather, © 2014

See weather overviewHow to use our weather pages